,,,PA_Meas_PMT16A,,PR_Meas_QMR101_102,,RH_Meas_QMH101,,SR_Meas_QMS101,,TA_Meas_QMH101,,GenWind,,GenWind,
date,time,status,PA,status,PR,status,RH,status,SR,status,TA,status,DirAvg,status,SpdAvg,
2010-12-10, 00:00:04,VALID,1000.01,VALID,0,VALID,90.7772,VALID,0,VALID,22.7452,VALID,193,VALID,2.35117,
2010-12-10, 00:01:04,VALID,999.985,VALID,0,VALID,90.6551,VALID,0,VALID,22.7469,VALID,179,VALID,2.11484,
2010-12-10, 00:02:04,VALID,999.961,VALID,0,VALID,90.6246,VALID,0,VALID,22.7452,VALID,184,VALID,1.65547,
2010-12-10, 00:03:04,VALID,999.933,VALID,0,VALID,90.6933,VALID,0,VALID,22.7664,VALID,197,VALID,1.52578,
2010-12-10, 00:04:04,VALID,999.941,VALID,0,VALID,90.7238,VALID,0,VALID,22.7452,VALID,177,VALID,1.62734,
2010-12-10, 00:05:04,VALID,999.953,VALID,0,VALID,90.7467,VALID,0,VALID,22.7452,VALID,194,VALID,1.17188,
2010-12-10, 00:06:04,VALID,999.981,VALID,0,VALID,90.9527,VALID,0,VALID,22.7647,VALID,186,VALID,0.765234,
2010-12-10, 00:07:04,VALID,999.957,VALID,0,VALID,91.2274,VALID,0,VALID,22.786,VALID,161,VALID,1.15352,
2010-12-10, 00:08:04,VALID,999.98,VALID,0,VALID,91.2197,VALID,0,VALID,22.7274,VALID,169,VALID,1.4957,
2010-12-10, 00:09:04,VALID,999.979,VALID,0,VALID,91.2579,VALID,0,VALID,22.6672,VALID,158,VALID,1.4668,
2010-12-10, 00:10:04,VALID,1000,VALID,0,VALID,91.3876,VALID,0,VALID,22.6867,VALID,151,VALID,1.17227,
2010-12-10, 00:11:04,VALID,999.98,VALID,0,VALID,91.4944,VALID,0,VALID,22.6477,VALID,152,VALID,1.32461,
2010-12-10, 00:12:04,VALID,999.929,VALID,0,VALID,91.5707,VALID,0,VALID,22.6477,VALID,152,VALID,0.8875,
2010-12-10, 00:13:04,VALID,999.94,VALID,0,VALID,91.6546,VALID,0,VALID,22.6087,VALID,150,VALID,1.15703,
2010-12-10, 00:14:04,VALID,999.936,VALID,0,VALID,91.7157,VALID,0,VALID,22.6299,VALID,129,VALID,0.984766,
2010-12-10, 00:15:04,VALID,999.948,VALID,0,VALID,91.7538,VALID,0,VALID,22.6087,VALID,162,VALID,1.09375,
2010-12-10, 00:16:04,VALID,999.911,VALID,0,VALID,91.7767,VALID,0,VALID,22.6104,VALID,160,VALID,1.23828,
2010-12-10, 00:17:04,VALID,999.895,VALID,0,VALID,91.792,VALID,0,VALID,22.5696,VALID,161,VALID,1.31484,
2010-12-10, 00:18:04,VALID,999.891,VALID,0,VALID,91.7309,VALID,0,VALID,22.5696,VALID,167,VALID,1.44609,
2010-12-10, 00:19:04,VALID,999.856,VALID,0,VALID,91.7004,VALID,0,VALID,22.5696,VALID,157,VALID,1.35625,
2010-12-10, 00:20:04,VALID,999.833,VALID,0,VALID,91.708,VALID,0,VALID,22.5892,VALID,154,VALID,1.63086,
2010-12-10, 00:21:04,VALID,999.815,VALID,0,VALID,91.6699,VALID,0,VALID,22.5892,VALID,142,VALID,1.56406,
2010-12-10, 00:22:04,VALID,999.792,VALID,0,VALID,91.6241,VALID,0,VALID,22.6087,VALID,159,VALID,1.47617,
2010-12-10, 00:23:04,VALID,999.797,VALID,0,VALID,91.6317,VALID,0,VALID,22.6494,VALID,161,VALID,1.43281,
2010-12-10, 00:24:04,VALID,999.781,VALID,0,VALID,91.5707,VALID,0,VALID,22.6282,VALID,142,VALID,1.15781,
2010-12-10, 00:25:04,VALID,999.773,VALID,0,VALID,91.5936,VALID,0,VALID,22.6477,VALID,165,VALID,1.28555,
2010-12-10, 00:26:04,VALID,999.756,VALID,0,VALID,91.5554,VALID,0,VALID,22.6689,VALID,148,VALID,1.32148,
2010-12-10, 00:27:04,VALID,999.707,VALID,0,VALID,91.5936,VALID,0,VALID,22.6884,VALID,183,VALID,1.11641,
2010-12-10, 00:28:04,VALID,999.669,VALID,0,VALID,91.5936,VALID,0,VALID,22.7062,VALID,206,VALID,0.484375,
2010-12-10, 00:29:04,VALID,999.631,VALID,0,VALID,91.3723,VALID,0,VALID,22.7062,VALID,187,VALID,1.07813,
2010-12-10, 00:30:04,VALID,999.633,VALID,0,VALID,91.09,VALID,0,VALID,22.7452,VALID,256,VALID,0.880078,
2010-12-10, 00:31:04,VALID,999.579,VALID,0,VALID,90.6704,VALID,0,VALID,22.8055,VALID,201,VALID,1.30664,
2010-12-10, 00:32:04,VALID,999.563,VALID,0,VALID,90.4339,VALID,0,VALID,22.8427,VALID,200,VALID,0.691016,
2010-12-10, 00:33:04,VALID,999.535,VALID,0,VALID,90.205,VALID,0,VALID,22.8232,VALID,219,VALID,1.30391,
2010-12-10, 00:34:04,VALID,999.479,VALID,0,VALID,90.1211,VALID,0,VALID,22.8427,VALID,189,VALID,0.812891,
2010-12-10, 00:35:04,VALID,999.436,VALID,0,VALID,90.1287,VALID,0,VALID,22.8427,VALID,197,VALID,1.12461,
2010-12-10, 00:36:04,VALID,999.446,VALID,0,VALID,90.0524,VALID,0,VALID,22.8623,VALID,222,VALID,0.658984,
2010-12-10, 00:37:04,VALID,999.43,VALID,0,VALID,89.9685,VALID,0,VALID,22.864,VALID,204,VALID,1.01328,
2010-12-10, 00:38:04,VALID,999.36,VALID,0,VALID,89.8464,VALID,0,VALID,22.864,VALID,187,VALID,1.08672,
2010-12-10, 00:39:04,VALID,999.354,VALID,0,VALID,89.7014,VALID,0,VALID,22.8818,VALID,204,VALID,0.563281,
2010-12-10, 00:40:04,VALID,999.369,VALID,0,VALID,89.6862,VALID,0,VALID,22.8818,VALID,226,VALID,0.869531,
2010-12-10, 00:41:04,VALID,999.331,VALID,0,VALID,89.587,VALID,0,VALID,22.8818,VALID,208,VALID,1.33086,
2010-12-10, 00:42:04,VALID,999.284,VALID,0,VALID,89.3123,VALID,0,VALID,22.9403,VALID,208,VALID,1.79492,
2010-12-10, 00:43:04,VALID,999.254,VALID,0,VALID,89.381,VALID,0,VALID,22.9615,VALID,196,VALID,0.795313,
2010-12-10, 00:44:04,VALID,999.248,VALID,0,VALID,89.4268,VALID,0,VALID,22.9208,VALID,203,VALID,1.61328,
2010-12-10, 00:45:04,VALID,999.213,VALID,0,VALID,89.3276,VALID,0,VALID,22.9403,VALID,190,VALID,0.623828,
2010-12-10, 00:46:04,VALID,999.165,VALID,0,VALID,89.3428,VALID,0,VALID,22.9208,VALID,224,VALID,1.0832,
2010-12-10, 00:47:04,VALID,999.166,VALID,0,VALID,89.1368,VALID,0,VALID,22.9208,VALID,149,VALID,0.869141,
2010-12-10, 00:48:04,VALID,999.112,VALID,0,VALID,89.3123,VALID,0,VALID,22.9598,VALID,145,VALID,1.26758,
2010-12-10, 00:49:04,VALID,999.146,VALID,0,VALID,89.0606,VALID,0,VALID,22.9615,VALID,202,VALID,1.19883,
2010-12-10, 00:50:04,VALID,999.118,VALID,0,VALID,88.7935,VALID,0,VALID,23.0006,VALID,232,VALID,0.828516,
2010-12-10, 00:51:04,VALID,999.124,VALID,0,VALID,89.0071,VALID,0,VALID,22.9793,VALID,146,VALID,0.736328,
2010-12-10, 00:52:04,VALID,999.099,VALID,0,VALID,89.2971,VALID,0,VALID,22.9598,VALID,136,VALID,1.39688,
2010-12-10, 00:53:04,VALID,999.088,VALID,0,VALID,89.4649,VALID,0,VALID,22.9208,VALID,126,VALID,1.10703,
2010-12-10, 00:54:04,VALID,999.022,VALID,0,VALID,89.6404,VALID,0,VALID,22.8818,VALID,119,VALID,0.939844,
2010-12-10, 00:55:04,VALID,999.01,VALID,0,VALID,89.8006,VALID,0.112286,VALID,22.841,VALID,137,VALID,0.991016,
2010-12-10, 00:56:04,VALID,998.987,VALID,0,VALID,90.0143,VALID,0.112286,VALID,22.8215,VALID,110,VALID,1.18789,
2010-12-10, 00:57:04,VALID,998.988,VALID,0,VALID,90.3652,VALID,0.112286,VALID,22.8215,VALID,101,VALID,1.21172,
2010-12-10, 00:58:04,VALID,998.94,VALID,0,VALID,90.5712,VALID,0.112286,VALID,22.8037,VALID,101,VALID,1.00039,
2010-12-10, 00:59:04,VALID,998.937,VALID,0,VALID,90.823,VALID,0.112286,VALID,22.8037,VALID,101,VALID,0.821484,
2010-12-10, 01:00:04,VALID,998.928,VALID,0,VALID,90.9832,VALID,0,VALID,22.763,VALID,101,VALID,0.964063,
2010-12-10, 01:01:04,VALID,998.889,VALID,0,VALID,91.0595,VALID,0.112286,VALID,22.7435,VALID,101,VALID,0.9,
2010-12-10, 01:02:04,VALID,998.872,VALID,0,VALID,90.9603,VALID,0.112286,VALID,22.7257,VALID,98,VALID,1.21172,
2010-12-10, 01:03:04,VALID,998.843,VALID,0,VALID,90.9832,VALID,0,VALID,22.7257,VALID,99,VALID,0.789063,
2010-12-10, 01:04:04,VALID,998.835,VALID,0.5,VALID,91.1206,VALID,0,VALID,22.7257,VALID,99,VALID,0.572656,
2010-12-10, 01:05:04,VALID,998.859,VALID,0,VALID,91.296,VALID,0,VALID,22.7257,VALID,100,VALID,0.597266,
2010-12-10, 01:06:04,VALID,998.812,VALID,0,VALID,91.3037,VALID,0.112286,VALID,22.6655,VALID,108,VALID,0.420312,
2010-12-10, 01:07:04,VALID,998.802,VALID,0,VALID,91.38,VALID,0.112286,VALID,22.6672,VALID,108,VALID,0.272656,
2010-12-10, 01:08:04,VALID,998.801,VALID,0,VALID,91.4563,VALID,0,VALID,22.6477,VALID,108,VALID,0.501562,
2010-12-10, 01:09:04,VALID,998.753,VALID,0,VALID,91.4791,VALID,0,VALID,22.6069,VALID,108,VALID,0.580859,
2010-12-10, 01:10:04,VALID,998.711,VALID,0,VALID,91.4181,VALID,0,VALID,22.6087,VALID,108,VALID,0.914063,
2010-12-10, 01:11:04,VALID,998.69,VALID,0,VALID,91.4334,VALID,0,VALID,22.6282,VALID,108,VALID,0.904688,
2010-12-10, 01:12:04,VALID,998.628,VALID,0,VALID,91.3189,VALID,0,VALID,22.6069,VALID,103,VALID,1.28711,
2010-12-10, 01:13:04,VALID,998.604,VALID,0,VALID,91.1663,VALID,0.112286,VALID,22.6282,VALID,106,VALID,1.10859,
2010-12-10, 01:14:04,VALID,998.55,VALID,0,VALID,91.0595,VALID,0.112286,VALID,22.6867,VALID,106,VALID,0.957031,
2010-12-10, 01:15:04,VALID,998.529,VALID,0,VALID,91.1587,VALID,0.112286,VALID,22.7062,VALID,106,VALID,0.812109,
2010-12-10, 01:16:04,VALID,998.51,VALID,0,VALID,91.2274,VALID,0.112286,VALID,22.6867,VALID,107,VALID,0.502344,
2010-12-10, 01:17:04,VALID,998.465,VALID,0,VALID,91.3418,VALID,0,VALID,22.6867,VALID,107,VALID,0.430469,
2010-12-10, 01:18:04,VALID,998.474,VALID,0,VALID,91.4334,VALID,0,VALID,22.6672,VALID,126,VALID,0.894531,
2010-12-10, 01:19:04,VALID,998.481,VALID,0,VALID,91.4486,VALID,0,VALID,22.6477,VALID,119,VALID,1.21797,
2010-12-10, 01:20:04,VALID,998.443,VALID,0,VALID,91.441,VALID,0,VALID,22.646,VALID,124,VALID,1.29648,
2010-12-10, 01:21:04,VALID,998.446,VALID,0,VALID,91.3952,VALID,0.112286,VALID,22.6867,VALID,115,VALID,1.3918,
2010-12-10, 01:22:04,VALID,998.393,VALID,0,VALID,91.3876,VALID,0,VALID,22.685,VALID,111,VALID,1.68672,
2010-12-10, 01:23:04,VALID,998.36,VALID,0,VALID,91.3571,VALID,0.112286,VALID,22.7452,VALID,108,VALID,1.75977,
2010-12-10, 01:24:04,VALID,998.379,VALID,0,VALID,91.3952,VALID,0,VALID,22.7435,VALID,130,VALID,1.24688,
2010-12-10, 01:25:04,VALID,998.337,VALID,0,VALID,91.3723,VALID,0,VALID,22.724,VALID,132,VALID,0.882813,
2010-12-10, 01:26:04,VALID,998.303,VALID,0,VALID,91.3037,VALID,0.112286,VALID,22.7045,VALID,104,VALID,1.37812,
2010-12-10, 01:27:04,VALID,998.295,VALID,0,VALID,91.1358,VALID,0.112286,VALID,22.7045,VALID,103,VALID,1.52617,
2010-12-10, 01:28:04,VALID,998.246,VALID,0,VALID,91.0748,VALID,0.112286,VALID,22.7435,VALID,115,VALID,1.09453,
2010-12-10, 01:29:04,VALID,998.217,VALID,0,VALID,91.0748,VALID,0.112286,VALID,22.7435,VALID,103,VALID,1.64609,
2010-12-10, 01:30:04,VALID,998.194,VALID,0,VALID,90.8306,VALID,0.112286,VALID,22.7647,VALID,107,VALID,1.5332,
2010-12-10, 01:31:04,VALID,998.142,VALID,0,VALID,90.0143,VALID,0.112286,VALID,22.724,VALID,98,VALID,1.51133,
2010-12-10, 01:32:04,VALID,998.144,VALID,0,VALID,89.4039,VALID,0,VALID,22.7825,VALID,95,VALID,1.36836,
2010-12-10, 01:33:04,VALID,998.085,VALID,0,VALID,89.1674,VALID,0,VALID,22.802,VALID,92,VALID,2.25508,
2010-12-10, 01:34:04,VALID,998.058,VALID,0,VALID,88.4654,VALID,0,VALID,22.841,VALID,93,VALID,1.90234,
2010-12-10, 01:35:04,VALID,998.025,VALID,0,VALID,88.0687,VALID,0.112286,VALID,22.8605,VALID,82,VALID,1.0707,
2010-12-10, 01:36:04,VALID,998.013,VALID,0,VALID,88.6028,VALID,0.112286,VALID,22.8995,VALID,73,VALID,1.02773,
2010-12-10, 01:37:04,VALID,998.026,VALID,0,VALID,88.4654,VALID,0,VALID,22.8623,VALID,53,VALID,0.997266,
2010-12-10, 01:38:04,VALID,997.984,VALID,0,VALID,88.4807,VALID,0.112286,VALID,22.8427,VALID,40,VALID,1.00742,
2010-12-10, 01:39:04,VALID,998.009,VALID,0,VALID,88.2671,VALID,0.112286,VALID,22.802,VALID,43,VALID,0.489453,
2010-12-10, 01:40:04,VALID,997.983,VALID,0,VALID,88.6104,VALID,0,VALID,22.802,VALID,43,VALID,0.0957031,
2010-12-10, 01:41:04,VALID,997.957,VALID,0,VALID,88.8317,VALID,0,VALID,22.763,VALID,85,VALID,1.36914,
2010-12-10, 01:42:04,VALID,997.941,VALID,0,VALID,88.4426,VALID,0,VALID,22.7842,VALID,136,VALID,1.13281,
2010-12-10, 01:43:04,VALID,997.962,VALID,0,VALID,87.6491,VALID,0,VALID,22.802,VALID,134,VALID,0.985937,
2010-12-10, 01:44:04,VALID,997.986,VALID,0,VALID,87.7483,VALID,0,VALID,22.8605,VALID,142,VALID,1.01758,
2010-12-10, 01:45:04,VALID,997.957,VALID,0,VALID,88.0229,VALID,0,VALID,22.8818,VALID,125,VALID,0.691016,
2010-12-10, 01:46:04,VALID,997.93,VALID,0,VALID,88.3052,VALID,0,VALID,22.8427,VALID,67,VALID,0.796875,
2010-12-10, 01:47:04,VALID,997.88,VALID,0,VALID,89.114,VALID,0,VALID,22.841,VALID,96,VALID,1.31172,
2010-12-10, 01:48:04,VALID,997.896,VALID,0,VALID,89.4344,VALID,0,VALID,22.802,VALID,100,VALID,1.19297,
2010-12-10, 01:49:04,VALID,997.837,VALID,0,VALID,89.0987,VALID,0,VALID,22.8037,VALID,97,VALID,2.1082,
2010-12-10, 01:50:04,VALID,997.841,VALID,0,VALID,88.7249,VALID,0,VALID,22.8215,VALID,105,VALID,1.63672,
2010-12-10, 01:51:04,VALID,997.806,VALID,0,VALID,88.9766,VALID,0,VALID,22.841,VALID,97,VALID,1.21445,
2010-12-10, 01:52:04,VALID,997.782,VALID,0,VALID,89.2284,VALID,0,VALID,22.8818,VALID,101,VALID,0.929688,
2010-12-10, 01:53:04,VALID,997.748,VALID,0,VALID,89.442,VALID,0,VALID,22.8427,VALID,88,VALID,1.18984,
2010-12-10, 01:54:04,VALID,997.758,VALID,0,VALID,89.3505,VALID,0,VALID,22.8232,VALID,95,VALID,1.32344,
2010-12-10, 01:55:04,VALID,997.702,VALID,0,VALID,89.442,VALID,0,VALID,22.7842,VALID,97,VALID,1.44883,
2010-12-10, 01:56:04,VALID,997.681,VALID,0,VALID,89.7625,VALID,0,VALID,22.7842,VALID,95,VALID,1.44453,
2010-12-10, 01:57:04,VALID,997.653,VALID,0,VALID,89.9761,VALID,0,VALID,22.7647,VALID,104,VALID,1.10703,
2010-12-10, 01:58:04,VALID,997.701,VALID,0,VALID,90.205,VALID,0,VALID,22.7647,VALID,123,VALID,0.497266,
2010-12-10, 01:59:04,VALID,997.662,VALID,0,VALID,90.2889,VALID,0,VALID,22.7469,VALID,123,VALID,0.349219,
2010-12-10, 02:00:04,VALID,997.621,VALID,0,VALID,90.3347,VALID,0,VALID,22.7274,VALID,123,VALID,0.477734,
2010-12-10, 02:01:04,VALID,997.591,VALID,0,VALID,89.9151,VALID,0,VALID,22.6672,VALID,156,VALID,1.02422,
2010-12-10, 02:02:04,VALID,997.601,VALID,0,VALID,89.0682,VALID,0,VALID,22.7469,VALID,178,VALID,0.755078,
2010-12-10, 02:03:04,VALID,997.562,VALID,0,VALID,88.7249,VALID,0,VALID,22.8037,VALID,178,VALID,0.619141,
2010-12-10, 02:04:05,VALID,997.488,VALID,0,VALID,88.6867,VALID,0,VALID,22.8232,VALID,140,VALID,1.10508,
2010-12-10, 02:05:05,VALID,997.45,VALID,0,VALID,88.9766,VALID,0,VALID,22.864,VALID,138,VALID,1.25664,
2010-12-10, 02:06:05,VALID,997.44,VALID,0,VALID,88.9919,VALID,0,VALID,22.864,VALID,134,VALID,0.989062,
2010-12-10, 02:07:05,VALID,997.435,VALID,0,VALID,89.1521,VALID,0,VALID,22.8427,VALID,156,VALID,0.840625,
2010-12-10, 02:08:05,VALID,997.417,VALID,0,VALID,88.9843,VALID,0,VALID,22.8623,VALID,164,VALID,0.402734,
2010-12-10, 02:09:05,VALID,997.394,VALID,0,VALID,88.7325,VALID,0,VALID,22.8835,VALID,164,VALID,0,
2010-12-10, 02:10:05,VALID,997.378,VALID,0,VALID,88.8851,VALID,0,VALID,22.8835,VALID,204,VALID,0,
2010-12-10, 02:11:05,VALID,997.328,VALID,0,VALID,89.2055,VALID,0,VALID,22.8623,VALID,313,VALID,0.80625,
2010-12-10, 02:12:05,VALID,997.337,VALID,0,VALID,89.3428,VALID,0,VALID,22.8037,VALID,313,VALID,0.579297,
2010-12-10, 02:13:05,VALID,997.314,VALID,0,VALID,89.3963,VALID,0,VALID,22.8037,VALID,313,VALID,0.0292969,
2010-12-10, 02:14:05,VALID,997.293,VALID,0,VALID,89.648,VALID,0,VALID,22.7647,VALID,313,VALID,0,
2010-12-10, 02:15:05,VALID,997.276,VALID,0,VALID,89.793,VALID,0,VALID,22.7452,VALID,257,VALID,0.321875,
2010-12-10, 02:16:05,VALID,997.291,VALID,0,VALID,89.3963,VALID,0,VALID,22.786,VALID,193,VALID,0.720703,
2010-12-10, 02:17:05,VALID,997.235,VALID,0,VALID,89.3963,VALID,0,VALID,22.8037,VALID,179,VALID,0.905859,
2010-12-10, 02:18:05,VALID,997.228,VALID,0,VALID,89.5107,VALID,0,VALID,22.8623,VALID,190,VALID,0.997656,
2010-12-10, 02:19:05,VALID,997.25,VALID,0,VALID,88.7477,VALID,0,VALID,22.9013,VALID,162,VALID,1.05195,
2010-12-10, 02:20:05,VALID,997.263,VALID,0,VALID,88.3815,VALID,0,VALID,22.942,VALID,164,VALID,1.025,
2010-12-10, 02:21:05,VALID,997.199,VALID,0,VALID,88.2442,VALID,0,VALID,22.9013,VALID,160,VALID,0.740625,
2010-12-10, 02:22:05,VALID,997.216,VALID,0,VALID,88.0763,VALID,0,VALID,22.9013,VALID,129,VALID,0.774609,
2010-12-10, 02:23:05,VALID,997.176,VALID,0,VALID,88.351,VALID,0,VALID,22.9225,VALID,144,VALID,0.387109,
2010-12-10, 02:24:05,VALID,997.159,VALID,0,VALID,88.2213,VALID,0,VALID,22.903,VALID,155,VALID,1.15117,
2010-12-10, 02:25:05,VALID,997.123,VALID,0,VALID,88.5646,VALID,0,VALID,22.9403,VALID,183,VALID,1.29141,
2010-12-10, 02:26:05,VALID,997.106,VALID,0,VALID,88.9232,VALID,0,VALID,22.9988,VALID,175,VALID,1.25898,
2010-12-10, 02:27:05,VALID,997.087,VALID,0,VALID,88.6791,VALID,0,VALID,22.9776,VALID,154,VALID,1.50937,
2010-12-10, 02:28:05,VALID,997.051,VALID,0,VALID,87.9771,VALID,0,VALID,22.9971,VALID,148,VALID,1.64609,
2010-12-10, 02:29:05,VALID,997.057,VALID,0,VALID,87.733,VALID,0,VALID,23.0361,VALID,139,VALID,1.69961,
2010-12-10, 02:30:05,VALID,997.046,VALID,0,VALID,87.8169,VALID,0,VALID,23.0556,VALID,131,VALID,0.894531,
2010-12-10, 02:31:05,VALID,997.044,VALID,0,VALID,87.9924,VALID,0,VALID,23.0361,VALID,119,VALID,1.0418,
2010-12-10, 02:32:05,VALID,997.036,VALID,0,VALID,87.6643,VALID,0,VALID,22.9776,VALID,109,VALID,0.877344,
2010-12-10, 02:33:05,VALID,997.034,VALID,0,VALID,87.8093,VALID,0,VALID,22.9776,VALID,90,VALID,0.744922,
2010-12-10, 02:34:05,VALID,997.036,VALID,0,VALID,88.1374,VALID,0,VALID,22.9793,VALID,81,VALID,1.17422,
2010-12-10, 02:35:05,VALID,997.01,VALID,0,VALID,88.6257,VALID,0.112286,VALID,22.9581,VALID,82,VALID,0.991406,
2010-12-10, 02:36:05,VALID,996.995,VALID,0,VALID,88.5723,VALID,0,VALID,22.9385,VALID,76,VALID,1.29219,
2010-12-10, 02:37:05,VALID,996.98,VALID,0,VALID,88.2137,VALID,0,VALID,22.9598,VALID,65,VALID,1.3793,
2010-12-10, 02:38:05,VALID,996.975,VALID,0,VALID,87.8322,VALID,0,VALID,22.9403,VALID,64,VALID,0.733984,
2010-12-10, 02:39:05,VALID,996.97,VALID,0,VALID,87.733,VALID,0,VALID,22.919,VALID,65,VALID,0.641016,
2010-12-10, 02:40:05,VALID,996.974,VALID,0,VALID,88.0077,VALID,0,VALID,22.9208,VALID,41,VALID,0.692578,
2010-12-10, 02:41:05,VALID,996.954,VALID,0,VALID,88.2823,VALID,0,VALID,22.9013,VALID,14,VALID,0.894531,
2010-12-10, 02:42:05,VALID,996.933,VALID,0,VALID,88.3739,VALID,0,VALID,22.8818,VALID,44,VALID,0.409766,
2010-12-10, 02:43:05,VALID,996.923,VALID,0,VALID,88.2671,VALID,0,VALID,22.864,VALID,8,VALID,0.45,
2010-12-10, 02:44:05,VALID,996.905,VALID,0,VALID,88.4044,VALID,0,VALID,22.864,VALID,8,VALID,0.321484,
2010-12-10, 02:45:05,VALID,996.878,VALID,0,VALID,87.5804,VALID,0,VALID,22.7842,VALID,72,VALID,1.38633,
2010-12-10, 02:46:05,VALID,996.828,VALID,0,VALID,86.2986,VALID,0,VALID,22.8427,VALID,134,VALID,0.466797,
2010-12-10, 02:47:05,VALID,996.814,VALID,0,VALID,86.7488,VALID,0,VALID,22.903,VALID,116,VALID,0.422266,
2010-12-10, 02:48:05,VALID,996.796,VALID,0,VALID,87.0463,VALID,0,VALID,22.903,VALID,120,VALID,0.553516,
2010-12-10, 02:49:05,VALID,996.785,VALID,0,VALID,87.3897,VALID,0,VALID,22.8835,VALID,120,VALID,0.323438,
2010-12-10, 02:50:05,VALID,996.775,VALID,0,VALID,87.6491,VALID,0,VALID,22.903,VALID,171,VALID,0.621875,
2010-12-10, 02:51:05,VALID,996.79,VALID,0,VALID,88.084,VALID,0,VALID,22.9225,VALID,210,VALID,0.611719,
2010-12-10, 02:52:05,VALID,996.768,VALID,0,VALID,88.3586,VALID,0,VALID,22.942,VALID,182,VALID,0.816797,
2010-12-10, 02:53:05,VALID,996.734,VALID,0,VALID,88.557,VALID,0,VALID,22.9208,VALID,143,VALID,1.03125,
2010-12-10, 02:54:05,VALID,996.743,VALID,0,VALID,87.7101,VALID,0,VALID,22.942,VALID,122,VALID,0.544922,
2010-12-10, 02:55:05,VALID,996.707,VALID,0,VALID,87.7025,VALID,0,VALID,22.9598,VALID,121,VALID,0.583203,
2010-12-10, 02:56:05,VALID,996.68,VALID,0,VALID,87.5423,VALID,0,VALID,22.919,VALID,114,VALID,0.684766,
2010-12-10, 02:57:05,VALID,996.712,VALID,0,VALID,87.2905,VALID,0,VALID,22.9385,VALID,98,VALID,0.726563,
2010-12-10, 02:58:05,VALID,996.696,VALID,0,VALID,87.0997,VALID,0,VALID,22.9598,VALID,98,VALID,1.06562,
2010-12-10, 02:59:05,VALID,996.72,VALID,0,VALID,87.4812,VALID,0,VALID,22.9581,VALID,106,VALID,1.00898,
2010-12-10, 03:00:05,VALID,996.706,VALID,0,VALID,87.588,VALID,0,VALID,22.9793,VALID,107,VALID,0.750391,
2010-12-10, 03:01:05,VALID,996.715,VALID,0,VALID,87.8398,VALID,0,VALID,22.9776,VALID,104,VALID,0.556641,
2010-12-10, 03:02:05,VALID,996.665,VALID,0,VALID,88.1068,VALID,0,VALID,22.9776,VALID,55,VALID,1.5668,
2010-12-10, 03:03:05,VALID,996.69,VALID,0,VALID,88.1908,VALID,0,VALID,22.9776,VALID,52,VALID,1.45742,
2010-12-10, 03:04:05,VALID,996.669,VALID,0,VALID,87.9009,VALID,0,VALID,22.9793,VALID,41,VALID,1.95039,
2010-12-10, 03:05:05,VALID,996.702,VALID,0,VALID,87.7101,VALID,0,VALID,22.9581,VALID,41,VALID,1.50547,
2010-12-10, 03:06:05,VALID,996.736,VALID,0,VALID,87.9543,VALID,0,VALID,22.9793,VALID,28,VALID,0.966016,
2010-12-10, 03:07:05,VALID,996.747,VALID,0,VALID,88.1068,VALID,0,VALID,22.9598,VALID,30,VALID,0.996094,
2010-12-10, 03:08:05,VALID,996.702,VALID,0,VALID,88.2289,VALID,0,VALID,22.8995,VALID,21,VALID,0.801562,
2010-12-10, 03:09:05,VALID,996.717,VALID,0,VALID,88.4731,VALID,0,VALID,22.88,VALID,15,VALID,0.861719,
2010-12-10, 03:10:05,VALID,996.738,VALID,0,VALID,88.7249,VALID,0,VALID,22.8818,VALID,15,VALID,0.604688,
2010-12-10, 03:11:05,VALID,996.725,VALID,0,VALID,88.8164,VALID,0,VALID,22.841,VALID,16,VALID,0.180078,
2010-12-10, 03:12:05,VALID,996.761,VALID,0,VALID,88.9766,VALID,0,VALID,22.8215,VALID,16,VALID,0,
2010-12-10, 03:13:05,VALID,996.751,VALID,0,VALID,89.0606,VALID,0,VALID,22.802,VALID,16,VALID,0.332031,
2010-12-10, 03:14:05,VALID,996.783,VALID,0,VALID,88.8317,VALID,0,VALID,22.763,VALID,16,VALID,0.541797,
2010-12-10, 03:15:05,VALID,996.78,VALID,0,VALID,88.3968,VALID,0,VALID,22.7842,VALID,12,VALID,0.555859,
2010-12-10, 03:16:05,VALID,996.8,VALID,0,VALID,88.145,VALID,0,VALID,22.8037,VALID,10,VALID,0.677734,
2010-12-10, 03:17:05,VALID,996.748,VALID,0,VALID,87.5346,VALID,0,VALID,22.8232,VALID,10,VALID,0.785547,
2010-12-10, 03:18:05,VALID,996.773,VALID,0,VALID,87.1455,VALID,0,VALID,22.8623,VALID,15,VALID,0.25625,
2010-12-10, 03:19:05,VALID,996.745,VALID,0,VALID,87.0082,VALID,0,VALID,22.8605,VALID,15,VALID,0.513281,
2010-12-10, 03:20:05,VALID,996.748,VALID,0,VALID,87.1989,VALID,0,VALID,22.9013,VALID,15,VALID,0.557813,
2010-12-10, 03:21:05,VALID,996.722,VALID,0,VALID,87.3057,VALID,0,VALID,22.9208,VALID,78,VALID,0.524219,
2010-12-10, 03:22:05,VALID,996.721,VALID,0,VALID,86.97,VALID,0,VALID,22.8995,VALID,78,VALID,0.610937,
2010-12-10, 03:23:05,VALID,996.754,VALID,0,VALID,87.1532,VALID,0,VALID,22.9385,VALID,78,VALID,0.270703,
2010-12-10, 03:24:05,VALID,996.745,VALID,0,VALID,87.1989,VALID,0,VALID,22.9598,VALID,78,VALID,0.275781,
2010-12-10, 03:25:05,VALID,996.788,VALID,0,VALID,87.2294,VALID,0,VALID,22.9598,VALID,78,VALID,0.282813,
2010-12-10, 03:26:05,VALID,996.749,VALID,0,VALID,87.2294,VALID,0,VALID,22.9793,VALID,78,VALID,0,
2010-12-10, 03:27:05,VALID,996.779,VALID,0,VALID,87.2752,VALID,0,VALID,22.9385,VALID,78,VALID,0,
2010-12-10, 03:28:05,VALID,996.769,VALID,0,VALID,87.5117,VALID,0,VALID,22.9598,VALID,78,VALID,0,
2010-12-10, 03:29:05,VALID,996.822,VALID,0,VALID,87.2142,VALID,0,VALID,22.9598,VALID,78,VALID,0,
2010-12-10, 03:30:05,VALID,996.787,VALID,0,VALID,87.4431,VALID,0,VALID,22.9385,VALID,78,VALID,0,
2010-12-10, 03:31:05,VALID,996.804,VALID,0,VALID,87.7635,VALID,0,VALID,22.9385,VALID,78,VALID,0,
2010-12-10, 03:32:05,VALID,996.8,VALID,0,VALID,87.672,VALID,0,VALID,22.9598,VALID,78,VALID,0.577344,
2010-12-10, 03:33:05,VALID,996.812,VALID,0,VALID,87.4126,VALID,0,VALID,22.9385,VALID,61,VALID,0.816406,
2010-12-10, 03:34:05,VALID,996.808,VALID,0,VALID,87.6414,VALID,0,VALID,22.9581,VALID,52,VALID,0.656641,
2010-12-10, 03:35:05,VALID,996.819,VALID,0,VALID,88.3129,VALID,0,VALID,22.9988,VALID,50,VALID,0.783984,
2010-12-10, 03:36:05,VALID,996.834,VALID,0,VALID,88.6486,VALID,0,VALID,22.9988,VALID,50,VALID,0.725391,
2010-12-10, 03:37:05,VALID,996.84,VALID,0,VALID,88.8774,VALID,0,VALID,22.9598,VALID,50,VALID,0.700781,
2010-12-10, 03:38:05,VALID,996.852,VALID,0,VALID,88.5189,VALID,0,VALID,22.919,VALID,55,VALID,0.991406,
2010-12-10, 03:39:05,VALID,996.872,VALID,0,VALID,87.9695,VALID,0,VALID,22.9208,VALID,57,VALID,0.738672,
2010-12-10, 03:40:05,VALID,996.863,VALID,0,VALID,87.6338,VALID,0,VALID,22.9013,VALID,57,VALID,0.749609,
2010-12-10, 03:41:05,VALID,996.894,VALID,0,VALID,87.6949,VALID,0,VALID,22.9208,VALID,57,VALID,0.540234,
2010-12-10, 03:42:05,VALID,996.889,VALID,0,VALID,87.9237,VALID,0,VALID,22.9615,VALID,57,VALID,0.637109,
2010-12-10, 03:43:05,VALID,996.859,VALID,0,VALID,88.1068,VALID,0,VALID,22.9615,VALID,57,VALID,0.478125,
2010-12-10, 03:44:05,VALID,996.897,VALID,0,VALID,88.351,VALID,0,VALID,22.9615,VALID,57,VALID,0.365234,
2010-12-10, 03:45:05,VALID,996.904,VALID,0,VALID,88.3586,VALID,0,VALID,22.942,VALID,57,VALID,0.183203,